This demonstration page uses our WeatherBlox Daily Observations layout. Learn more.

Left ArrowRight Arrow

Hourly Observations for May 2, 2015

Temp ( °F °C ) Dew Point ( °F °C ) Humidity (%) Winds ( mph kmh ) Pressure ( in mb ) Visibility ( mi km ) Precip ( " mm )
12:16 am 00:16 Clear 54 12 36 2 51 51 Calm 30.12 1020 10 16.0934 N/A
12:36 am 00:36 Clear 52 11 37 3 58 58 NW 5 7 30.12 1020 10 16.0934 N/A
12:56 am 00:56 Clear 52 11 37 3 58 58 N 5 7 30.12 1020 10 16.0934 N/A
1:16 am 01:16 Clear 52 11 37 3 58 58 N 3 6 30.15 1021 10 16.0934 N/A
1:36 am 01:36 Clear 50 10 39 4 67 67 NNE 3 6 30.12 1020 10 16.0934 N/A
1:55 am 01:55 Clear 52 11 37 3 58 58 Calm 30.15 1021 10 16.0934 N/A
2:16 am 02:16 Clear 50 10 36 2 58 58 WNW 5 7 30.15 1021 10 16.0934 N/A
2:36 am 02:36 Clear 50 10 37 3 62 62 Calm 30.12 1020 10 16.0934 N/A
2:56 am 02:56 Clear 48 9 41 5 76 76 Calm 30.12 1020 10 16.0934 N/A
3:16 am 03:16 Clear 50 10 37 3 62 62 Calm 30.12 1020 10 16.0934 N/A
3:36 am 03:36 Clear 50 10 37 3 62 62 Calm 30.12 1020 10 16.0934 N/A
3:56 am 03:56 Clear 48 9 37 3 66 66 Calm 30.12 1020 10 16.0934 N/A
4:16 am 04:16 Clear 46 8 41 5 82 82 Calm 30.15 1021 10 16.0934 N/A
4:35 am 04:35 Clear 46 8 41 5 82 82 NNW 3 6 30.15 1021 10 16.0934 N/A
4:56 am 04:56 Clear 46 8 41 5 82 82 Calm 30.15 1021 10 16.0934 N/A
5:16 am 05:16 Clear 46 8 46 8 100 100 Calm 30.15 1021 10 16.0934 N/A
5:36 am 05:36 Clear 46 8 N/A N/A Calm 30.15 1021 10 16.0934 N/A
5:56 am 05:56 Clear 46 8 N/A N/A Calm 30.15 1021 10 16.0934 N/A
6:15 am 06:15 Clear 46 8 N/A N/A Calm 30.15 1021 10 16.0934 N/A
6:36 am 06:36 Clear 46 8 46 8 100 100 Calm 30.15 1021 10 16.0934 N/A
6:56 am 06:56 Sunny 46 8 N/A N/A Calm 30.15 1021 10 16.0934 N/A
7:16 am 07:16 Sunny 46 8 N/A N/A Calm 30.15 1021 10 16.0934 N/A
7:36 am 07:36 Sunny 48 9 N/A N/A Calm 30.15 1021 10 16.0934 N/A
7:56 am 07:56 Sunny 48 9 N/A N/A Calm 30.15 1021 10 16.0934 N/A
8:16 am 08:16 Sunny 52 11 48 9 88 88 Calm 30.18 1022 10 16.0934 N/A
8:36 am 08:36 Sunny 54 12 41 5 63 63 Calm 30.18 1022 10 16.0934 N/A
8:56 am 08:56 Sunny 57 14 37 3 48 48 Calm 30.15 1021 10 16.0934 N/A
9:16 am 09:16 Sunny 61 16 37 3 42 42 Calm 30.15 1021 10 16.0934 N/A
9:36 am 09:36 Sunny 63 17 34 1 34 34 SSE 3 6 30.15 1021 10 16.0934 N/A
9:56 am 09:56 Sunny 64 18 34 1 32 32 S 3 6 30.15 1021 10 16.0934 N/A
10:16 am 10:16 Sunny 66 19 32 0 28 28 S 5 7 30.15 1021 10 16.0934 N/A
10:36 am 10:36 Sunny 68 20 28 -2 23 23 SSE 5 7 30.15 1021 10 16.0934 N/A
10:56 am 10:56 Sunny 68 20 23 -5 18 18 SSE 3 6 30.15 1021 10 16.0934 N/A
11:16 am 11:16 Sunny 70 21 27 -3 20 20 SW 5 7 30.15 1021 10 16.0934 N/A
11:36 am 11:36 Sunny 70 21 27 -3 20 20 SSW 3 6 30.12 1020 10 16.0934 N/A
11:56 am 11:56 Sunny 70 21 27 -3 20 20 SSW 6 9 30.15 1021 10 16.0934 N/A
12:16 pm 12:16 Sunny 72 22 27 -3 19 19 WSW 6 9 30.15 1021 10 16.0934 N/A
12:36 pm 12:36 Sunny 72 22 27 -3 19 19 SSW 9 15 30.09 1019 10 16.0934 N/A
12:56 pm 12:56 Sunny 72 22 27 -3 19 19 SSW 9 15 30.09 1019 10 16.0934 N/A
1:16 pm 13:16 Sunny 73 23 25 -4 16 16 WSW 7 11 30.09 1019 10 16.0934 N/A
1:36 pm 13:36 Sunny 70 21 27 -3 20 20 SW 5 7 30.12 1020 10 16.0934 N/A
1:56 pm 13:56 Sunny 70 21 27 -3 20 20 WSW 3 6 30.09 1019 10 16.0934 N/A
2:16 pm 14:16 Sunny 73 23 23 -5 15 15 Calm 30.06 1018 10 16.0934 N/A
2:36 pm 14:36 Sunny 73 23 23 -5 15 15 SW 13 20 30.06 1018 10 16.0934 N/A
2:56 pm 14:56 Sunny 73 23 23 -5 15 15 S 7 11 30.06 1018 10 16.0934 N/A
3:16 pm 15:16 Sunny 73 23 23 -5 15 15 SW 10 17 30.03 1017 7 11.26538 N/A
3:36 pm 15:36 Sunny 73 23 23 -5 15 15 SW 13 20 30.03 1017 10 16.0934 N/A
3:56 pm 15:56 Sunny 73 23 21 -6 14 14 WSW 3 6 30.03 1017 10 16.0934 N/A
4:16 pm 16:16 Sunny 75 24 23 -5 14 14 WSW 8 13 30.03 1017 10 16.0934 N/A
4:35 pm 16:35 Sunny 73 23 21 -6 14 14 SSW 9 15 30 1016 10 16.0934 N/A
4:56 pm 16:56 Sunny 73 23 19 -7 13 13 SSW 7 11 30 1016 10 16.0934 N/A
5:16 pm 17:16 Sunny 73 23 21 -6 14 14 W 6 9 30 1016 10 16.0934 N/A
5:36 pm 17:36 Sunny 75 24 19 -7 12 12 WSW 6 9 30 1016 10 16.0934 N/A
5:56 pm 17:56 Sunny 75 24 19 -7 12 12 SSW 9 15 30 1016 10 16.0934 N/A
6:16 pm 18:16 Sunny 73 23 19 -7 13 13 WSW 10 17 30 1016 10 16.0934 N/A
6:36 pm 18:36 Sunny 73 23 18 -8 12 12 SW 12 19 30 1016 10 16.0934 N/A
6:56 pm 18:56 Sunny 73 23 18 -8 12 12 WSW 12 19 30 1016 10 16.0934 N/A
7:16 pm 19:16 Sunny 72 22 21 -6 15 15 WSW 8 13 30 1016 10 16.0934 N/A
7:36 pm 19:36 Sunny 72 22 21 -6 15 15 WSW 7 11 30 1016 10 16.0934 N/A
7:56 pm 19:56 Sunny 70 21 23 -5 17 17 SW 6 9 30 1016 10 16.0934 N/A
8:16 pm 20:16 Sunny 66 19 30 -1 26 26 W 6 9 30.03 1017 10 16.0934 N/A
8:36 pm 20:36 Sunny 64 18 30 -1 28 28 WSW 6 9 30.03 1017 10 16.0934 N/A
8:56 pm 20:56 Clear 61 16 32 0 34 34 WSW 5 7 30.03 1017 10 16.0934 N/A
9:16 pm 21:16 Clear 61 16 34 1 36 36 WSW 5 7 30.06 1018 10 16.0934 N/A
9:36 pm 21:36 Clear 61 16 34 1 36 36 SW 3 6 30.06 1018 10 16.0934 N/A
9:56 pm 21:56 Clear 59 15 34 1 39 39 Calm 30.06 1018 10 16.0934 N/A
10:15 pm 22:15 Clear 59 15 36 2 42 42 SW 5 7 30.06 1018 10 16.0934 N/A
10:36 pm 22:36 Clear 57 14 36 2 44 44 SSW 3 6 30.06 1018 10 16.0934 N/A
10:56 pm 22:56 Clear 57 14 36 2 44 44 SW 3 6 30.06 1018 10 16.0934 N/A
11:16 pm 23:16 Clear 59 15 36 2 42 42 SSW 3 6 30.06 1018 10 16.0934 N/A
11:36 pm 23:36 Clear 55 13 37 3 51 51 SSW 3 6 30.06 1018 10 16.0934 N/A
11:55 pm 23:55 Clear 57 14 36 2 44 44 SSW 3 6 30.06 1018 10 16.0934 N/A

Powered by AerisWeather